SCP
-0 -0 -0 -0 -0 -0 -0 -0 -0 -0 -0 0 0 0 0 -0 -0 -0 0 0 0 0 0 0 0 0 0 0 0 0 0 0 0 0 0 0 0 0 0 0 0 0 0
-0 -0 -0 -0 -0 -0 -0 -0 -0 -0 -0 -0 0 0 0 0 0 -0 0 0 -0 0 0 0 0 0 0 0 0 0 0 0 0 0 0 0 0 0 0 0 0 0 0
-0 -0 -0 -0 -0 -0 -0 -0 -0 -0 -0 -0 0 0 0 -0 0 -0 -0 -0 0 0 0 0 0 0 0 0 0 0 0 0 0 0 0 0 0 0 0 0 0 0 0
-0 -0 -0 -0 -0 -0 -0 -0 -0 -0 -0 -0 0 -0 -0 -0 0 -0 -0 -0 -0 0 0 0 0 0 0 0 0 0 0 0 0 0 0 0 0 0 0 0 0 0 0
-0 -0 -0 -0 -0 -0 -0 -0 -0 -0 -0 -0 -0 -0 -0 0 0 0 0 -0 -0 -0 0 0 0 0 0 0 0 0 0 0 1 0 0 0 0 0 0 0 0 0 0
-0 -0 -0 -0 -0 -0 0 -0 -0 -0 -0 -0 -0 -0 -0 -0 0 0 0 -0 -0 -0 0 0 0 -0 0 0 0 0 0 0 0 1 1 1 1 0 0 0 0 0 0
-0 -0 -0 -0 -0 -0 -0 -0 -0 -0 -0 -0 -0 -0 -0 -0 -0 -0 0 -0 -0 -0 0 0 0 0 0 0 0 0 0 0 0 0 1 1 1 1 0 0 0 0 0
-0 -0 -0 -0 -0 -0 -0 -0 -0 -0 -0 -0 -0 -0 -0 -0 -0 -0 0 0 -0 -0 -0 -0 -0 -0 -0 0 0 0 0 0 0 0 1 0 0 0 0 0 0 0 0
-0 -0 -0 -0 -0 -0 -0 -0 -0 -0 -0 -0 -0 -0 -0 -0 -0 -0 0 0 -0 -0 -0 -0 -0 -0 -0 -0 -0 0 0 0 0 0 0 0 0 0 0 0 0 0 0
-0 0 -0 -0 -0 -0 -0 -0 -0 -0 -0 -0 -0 -0 -0 -0 -0 -0 -0 -0 0 0 -0 -0 -0 -0 -0 -0 -0 -0 -0 0 0 0 0 0 0 0 0 0 0 0 0
-0 0 -0 -0 -0 -0 -0 -0 -0 -0 -0 -0 -0 -0 -0 -0 -0 -0 -0 -0 0 0 0 0 -0 -0 -0 -0 -0 -0 -0 0 0 0 0 0 0 0 0 0 0 0 0
-0 -0 -0 -0 -0 -0 -0 -0 -0 -0 -0 -0 -0 -0 -0 -0 -0 -0 0 0 0 0 0 0 0 0 0 -0 -0 -0 0 0 0 0 0 0 0 0 0 0 0 0 0
0 0 0 0 -0 -0 -0 -0 -0 -0 -0 -0 -0 -0 0 0 0 0 0 0 0 0 0 0 0 0 0 0 0 0 1 1 0 0 0 0 0 0 1 1 1 0 0
0 0 0 -0 -0 -0 -0 -0 -0 -0 -0 -0 -0 -0 0 0 0 1 1 1 1 1 1 1 1 1 1 1 1 1 1 1 1 0 0 1 0 0 0 0 1 1 0
0 0 0 0 -0 -0 -0 -0 -0 -0 -0 -0 -0 -0 0 0 1 1 1 1 1 1 1 1 1 1 1 1 1 1 1 0 0 0 0 0 0 0 0 0 0 0 0
0 0 0 0 0 -0 -0 -0 -0 0 0 -0 -0 0 0 1 1 1 1 1 1 1 1 1 1 1 2 2 1 0 0 0 0 0 0 0 0 0 0 0 0 0 0
0 0 0 0 0 -0 -0 -0 0 1 0 0 0 0 1 1 1 1 1 1 1 1 1 1 0 0 0 0 1 1 1 0 0 0 0 0 0 0 0 0 0 0 0
0 0 0 -0 0 0 0 0 0 1 1 0 1 1 1 1 1 0 0 0 0 0 0 1 0 0 0 0 0 0 0 0 0 0 0 0 0 0 0 0 0 0 0
0 0 0 0 0 0 0 0 1 1 2 1 1 1 1 0 0 0 0 0 0 0 0 0 0 0 0 0 0 0 0 0 0 0 0 0 0 0 0 0 0 0 0
0 0 0 0 0 0 1 1 2 2 2 1 1 1 1 1 0 0 0 0 0 0 0 0 0 0 0 0 0 0 0 0 0 0 0 0 0 0 0 0 0 0 0
0 0 0 1 1 1 1 2 3 2 2 2 3 2 3 2 0 0 0 0 0 0 0 0 0 0 0 0 0 0 0 0 0 0 0 0 0 0 0 0 0 0 0
-0 -0 2 4 3 2 2 3 4 4 3 2 2 1 0 0 0 0 0 0 0 1 1 1 0 0 0 0 0 0 0 0 0 0 0 0 0 0 0 0 0 0 0
-1 1 4 3 3 3 3 4 3 2 1 1 0 0 0 0 0 0 1 1 1 1 1 1 0 0 0 0 0 0 0 0 0 0 0 0 0 0 0 0 0 0 0
0 3 5 4 3 2 2 1 1 1 1 1 0 0 0 0 0 0 0 1 1 1 0 0 0 0 0 0 0 0 0 0 0 0 0 0 0 0 0 0 0 0 0
2 4 4 2 2 1 0 0 0 0 0 0 0 0 0 0 0 0 0 0 0 0 0 0 0 0 0 0 0 0 0 0 0 0 0 0 0 0 0 0 0 0 0
1 2 1 0 0 0 0 0 0 0 0 0 0 0 0 0 0 0 0 0 0 0 0 0 0 0 0 0 0 0 0 0 0 0 0 0 0 0 0 0 0 0 0
Wind_Speed_500mb
64 58 55 58 60 57 56 51 51 44 45 43 42 42 38 32 28 22 19 16 17 10 11 15 17 19 20 20 23 29 30 29 29 36 38 36 31 13 23 27 27 29 30
65 59 57 58 66 57 56 58 52 48 46 47 42 41 38 39 40 30 21 14 16 12 14 15 15 18 23 24 25 27 28 28 25 33 38 34 43 12 48 38 28 36 32
68 63 53 55 59 61 54 57 53 50 48 46 42 45 43 39 40 38 26 14 16 15 16 15 15 18 22 21 21 26 27 28 25 28 26 21 21 61 43 37 45 38 39
74 67 62 62 61 56 45 44 45 47 51 49 46 46 43 38 38 37 26 24 24 20 20 21 21 19 19 16 17 21 26 30 29 28 27 29 34 41 44 39 46 46 40
79 77 68 68 66 59 51 45 45 47 50 52 48 47 47 36 36 37 34 28 26 20 19 17 17 17 19 18 22 21 25 31 36 36 39 38 34 36 37 55 56 51 45
79 78 73 71 72 67 61 55 53 51 51 52 49 48 46 40 42 44 39 32 27 20 19 18 13 13 17 20 26 27 31 36 41 43 39 40 37 38 35 44 51 51 48
76 73 74 79 82 78 71 63 60 58 55 55 53 50 47 42 43 46 40 36 34 28 21 21 21 19 17 20 25 31 36 38 41 45 47 45 49 48 46 38 41 42 47
75 75 77 77 79 80 77 71 65 64 64 63 58 52 49 46 42 44 44 43 39 31 26 26 27 27 27 28 30 30 31 34 40 46 45 44 39 42 33 21 32 42 45
78 74 73 74 77 78 79 77 71 67 66 65 63 59 54 51 48 42 42 42 41 36 31 33 31 28 30 33 34 31 32 37 40 37 39 41 35 34 28 22 27 34 42
80 73 78 75 70 68 72 72 71 69 64 65 68 64 58 52 50 48 48 45 42 40 40 39 37 36 36 37 32 33 40 44 38 35 36 36 31 33 35 34 36 35 40
77 74 78 81 78 72 70 69 73 71 72 69 66 68 64 59 54 50 51 52 46 43 44 41 39 39 39 35 33 40 40 39 38 36 38 37 33 31 32 36 41 44 47
82 81 79 75 79 76 75 75 75 75 68 68 69 67 67 65 61 55 51 51 52 49 47 46 47 45 38 36 41 38 33 38 39 35 37 35 37 36 37 39 40 45 45
74 81 83 87 85 82 79 76 78 74 66 66 70 69 67 66 62 57 53 47 46 47 49 51 49 42 42 43 35 32 35 35 34 35 38 40 41 40 39 40 42 43 44
68 79 84 85 84 86 86 79 77 80 78 70 65 66 67 59 54 53 49 42 38 40 41 40 39 33 31 31 31 33 31 30 36 43 45 47 46 47 47 48 48 47 46
53 75 79 87 88 87 85 84 78 77 84 82 77 69 53 54 55 49 41 33 30 30 27 26 30 35 38 35 32 30 31 33 36 43 43 43 44 45 47 48 47 49 50
46 72 80 85 92 91 88 83 79 75 82 90 84 68 59 56 47 40 35 32 28 24 17 21 29 29 35 33 29 31 32 33 34 33 34 34 37 36 35 36 33 36 39
65 62 82 87 93 92 91 81 79 75 77 82 80 74 63 59 45 45 46 49 41 31 30 9 28 43 37 33 32 32 32 32 31 35 38 41 42 45 43 41 40 36 36
68 70 77 93 96 94 88 79 77 69 76 73 74 73 66 58 61 59 55 56 51 56 40 29 57 50 47 37 33 29 28 29 31 35 36 38 43 45 47 46 47 46 41
81 67 61 86 100 94 88 81 72 78 73 74 69 68 68 67 68 63 55 54 58 48 60 37 47 40 40 35 27 27 29 31 32 31 35 40 40 41 41 44 46 48 48
95 79 54 66 86 96 84 81 78 73 70 72 65 66 65 64 70 58 58 59 56 46 29 22 25 26 22 23 33 32 32 37 41 38 36 38 47 46 45 43 45 51 49
109 85 58 65 79 89 86 81 83 75 62 60 57 60 58 60 64 60 58 53 38 39 20 20 15 20 28 34 34 35 36 44 46 49 48 47 51 52 50 50 53 56 63
101 76 56 65 71 72 76 81 79 71 61 56 55 49 55 59 55 48 40 28 20 22 19 15 20 26 28 35 39 42 45 49 50 51 52 54 55 57 54 57 61 67 73
78 51 62 58 55 59 73 81 77 63 54 51 51 51 27 47 43 30 26 27 21 17 15 17 25 34 40 46 46 43 46 45 45 52 58 53 49 51 54 64 73 80 83
44 46 57 60 62 64 64 59 58 59 56 57 59 52 57 44 35 28 25 18 12 11 17 27 34 35 36 37 39 42 46 46 42 42 46 55 64 67 69 72 71 62 57
32 38 50 54 59 57 63 71 67 63 59 52 49 47 46 34 33 30 18 6 10 14 22 25 24 26 29 33 37 39 40 44 47 51 58 62 61 56 52 50 49 48 50
31 46 53 58 65 81 80 73 64 54 51 48 42 36 38 34 27 19 10 5 11 15 18 21 23 26 28 30 34 37 43 49 50 50 48 43 41 41 43 44 45 44 45
Wind_Direction_500mb
239 240 240 235 230 228 223 219 216 218 221 224 225 224 229 231 236 243 243 251 244 266 282 302 307 305 319 317 317 320 326 326 322 327 331 335 340 335 339 350 332 320 319
234 239 242 239 228 224 223 221 220 222 224 228 232 236 245 246 244 241 256 250 241 259 283 300 319 309 302 307 313 311 315 316 318 324 331 337 342 346 335 346 357 338 327
232 233 235 226 222 221 220 219 221 225 227 226 229 237 246 248 234 235 249 247 252 249 277 291 299 306 305 310 299 304 304 307 315 318 323 330 315 326 331 341 348 344 338
237 235 232 224 221 221 223 224 225 230 230 226 226 227 234 242 233 227 232 235 243 248 264 285 293 289 295 303 307 302 307 307 311 307 311 325 320 317 318 325 339 347 350
239 236 232 230 228 224 223 225 228 232 231 226 228 228 230 237 225 225 232 243 242 254 259 269 279 289 276 283 289 297 301 302 306 308 313 323 325 317 321 318 334 346 2
239 238 236 230 228 227 226 228 229 231 231 230 231 230 230 230 223 223 228 227 229 233 251 263 243 263 278 274 269 277 288 297 302 305 312 332 318 311 313 314 322 334 354
237 233 231 229 227 227 227 228 230 232 232 231 233 232 232 229 229 225 227 225 229 239 246 251 254 264 283 290 279 273 277 292 303 307 306 314 323 316 302 306 314 324 338
230 233 234 234 232 232 231 230 229 231 233 234 235 236 235 233 232 229 232 236 235 231 238 242 250 268 277 285 298 292 283 292 307 313 314 311 322 327 313 281 312 318 324
220 232 236 234 234 234 235 233 233 234 236 236 236 236 237 236 235 232 234 240 238 232 241 247 253 261 276 280 290 293 299 307 314 320 314 313 305 329 331 315 315 309 311
216 219 233 236 234 234 237 238 238 238 240 240 239 239 239 240 240 236 235 238 239 240 247 254 262 270 278 281 282 290 305 303 305 303 304 306 303 305 315 312 309 302 301
217 212 226 235 241 234 229 235 237 238 239 240 242 241 241 241 243 244 242 239 241 245 250 257 263 275 276 278 285 297 297 296 305 303 302 301 304 295 301 299 299 297 300
222 217 219 230 235 238 238 234 235 237 237 240 241 241 241 242 243 245 248 247 245 246 252 261 268 274 271 277 289 287 288 296 298 302 304 308 303 300 299 295 294 295 297
228 226 225 227 235 239 239 236 232 233 232 235 240 241 241 241 244 247 251 254 253 253 258 265 268 266 273 277 276 276 285 293 301 308 310 310 304 301 299 299 302 302 298
233 225 228 230 233 238 239 237 235 232 234 232 236 240 241 239 239 246 252 258 262 258 260 265 270 270 271 268 273 277 284 295 306 308 308 306 308 310 307 304 302 299 300
229 231 231 235 236 237 238 239 234 234 233 236 236 236 238 243 237 242 249 257 248 245 245 252 257 267 272 268 269 272 286 299 304 306 305 305 304 305 310 308 307 305 302
261 246 233 237 240 238 240 238 236 233 234 234 236 237 235 238 233 233 233 225 221 227 243 282 276 266 264 260 264 279 284 294 306 317 320 317 312 311 317 322 321 315 314
299 271 247 235 236 239 242 242 239 233 233 237 238 236 236 237 222 217 215 207 207 200 200 207 301 284 265 264 272 278 290 303 320 323 318 315 314 313 311 310 314 317 323
323 302 268 243 237 239 240 238 239 236 231 231 235 235 231 225 209 210 213 214 217 214 203 248 238 257 264 267 269 282 296 306 316 318 321 320 314 310 304 301 299 301 308
321 306 291 265 246 239 237 234 228 229 227 228 231 228 223 214 206 210 219 224 228 212 301 287 219 238 249 260 273 283 286 294 299 312 320 323 324 322 310 304 297 295 298
317 314 286 268 259 244 231 226 225 222 224 223 224 221 217 209 208 212 220 213 221 284 286 224 224 233 246 266 268 271 278 284 296 304 307 311 309 305 304 305 300 302 306
317 314 282 250 253 246 230 219 220 219 219 216 213 210 206 201 208 215 226 235 253 271 197 224 241 251 263 268 273 280 284 288 292 297 298 300 298 295 289 293 296 297 300
313 305 271 245 238 235 224 214 212 211 207 201 199 195 196 196 207 208 225 254 195 189 218 230 250 272 282 285 290 292 290 293 292 290 290 291 291 290 288 289 292 293 294
304 290 248 228 212 212 210 206 198 189 180 178 172 167 218 193 196 201 196 181 188 209 229 257 277 289 295 299 300 298 299 297 294 295 294 293 295 296 298 295 293 290 289
277 239 215 200 190 192 195 200 172 166 167 171 167 176 188 193 188 180 175 179 206 243 271 279 291 297 296 294 294 295 293 292 291 289 296 302 302 301 299 295 294 296 296
223 198 188 179 173 166 165 158 158 160 158 160 166 169 183 190 174 173 182 199 257 277 294 297 295 298 298 295 293 289 288 293 299 306 309 307 307 310 309 307 308 312 311
185 174 177 163 155 152 148 145 146 151 153 150 154 167 178 176 182 181 178 257 294 302 301 298 298 301 303 303 300 300 302 306 312 313 313 319 325 333 330 324 323 327 329
Wind_Speed_850mb
64 58 55 58 60 57 56 51 51 44 45 43 42 42 38 32 28 22 19 16 17 10 11 15 17 19 20 20 23 29 30 29 29 36 38 36 31 13 23 27 27 29 30
65 59 57 58 66 57 56 58 52 48 46 47 42 41 38 39 40 30 21 14 16 12 14 15 15 18 23 24 25 27 28 28 25 33 38 34 43 12 48 38 28 36 32
68 63 53 55 59 61 54 57 53 50 48 46 42 45 43 39 40 38 26 14 16 15 16 15 15 18 22 21 21 26 27 28 25 28 26 21 21 61 43 37 45 38 39
74 67 62 62 61 56 45 44 45 47 51 49 46 46 43 38 38 37 26 24 24 20 20 21 21 19 19 16 17 21 26 30 29 28 27 29 34 41 44 39 46 46 40
79 77 68 68 66 59 51 45 45 47 50 52 48 47 47 36 36 37 34 28 26 20 19 17 17 17 19 18 22 21 25 31 36 36 39 38 34 36 37 55 56 51 45
79 78 73 71 72 67 61 55 53 51 51 52 49 48 46 40 42 44 39 32 27 20 19 18 13 13 17 20 26 27 31 36 41 43 39 40 37 38 35 44 51 51 48
76 73 74 79 82 78 71 63 60 58 55 55 53 50 47 42 43 46 40 36 34 28 21 21 21 19 17 20 25 31 36 38 41 45 47 45 49 48 46 38 41 42 47
75 75 77 77 79 80 77 71 65 64 64 63 58 52 49 46 42 44 44 43 39 31 26 26 27 27 27 28 30 30 31 34 40 46 45 44 39 42 33 21 32 42 45
78 74 73 74 77 78 79 77 71 67 66 65 63 59 54 51 48 42 42 42 41 36 31 33 31 28 30 33 34 31 32 37 40 37 39 41 35 34 28 22 27 34 42
80 73 78 75 70 68 72 72 71 69 64 65 68 64 58 52 50 48 48 45 42 40 40 39 37 36 36 37 32 33 40 44 38 35 36 36 31 33 35 34 36 35 40
77 74 78 81 78 72 70 69 73 71 72 69 66 68 64 59 54 50 51 52 46 43 44 41 39 39 39 35 33 40 40 39 38 36 38 37 33 31 32 36 41 44 47
82 81 79 75 79 76 75 75 75 75 68 68 69 67 67 65 61 55 51 51 52 49 47 46 47 45 38 36 41 38 33 38 39 35 37 35 37 36 37 39 40 45 45
74 81 83 87 85 82 79 76 78 74 66 66 70 69 67 66 62 57 53 47 46 47 49 51 49 42 42 43 35 32 35 35 34 35 38 40 41 40 39 40 42 43 44
68 79 84 85 84 86 86 79 77 80 78 70 65 66 67 59 54 53 49 42 38 40 41 40 39 33 31 31 31 33 31 30 36 43 45 47 46 47 47 48 48 47 46
53 75 79 87 88 87 85 84 78 77 84 82 77 69 53 54 55 49 41 33 30 30 27 26 30 35 38 35 32 30 31 33 36 43 43 43 44 45 47 48 47 49 50
46 72 80 85 92 91 88 83 79 75 82 90 84 68 59 56 47 40 35 32 28 24 17 21 29 29 35 33 29 31 32 33 34 33 34 34 37 36 35 36 33 36 39
65 62 82 87 93 92 91 81 79 75 77 82 80 74 63 59 45 45 46 49 41 31 30 9 28 43 37 33 32 32 32 32 31 35 38 41 42 45 43 41 40 36 36
68 70 77 93 96 94 88 79 77 69 76 73 74 73 66 58 61 59 55 56 51 56 40 29 57 50 47 37 33 29 28 29 31 35 36 38 43 45 47 46 47 46 41
81 67 61 86 100 94 88 81 72 78 73 74 69 68 68 67 68 63 55 54 58 48 60 37 47 40 40 35 27 27 29 31 32 31 35 40 40 41 41 44 46 48 48
95 79 54 66 86 96 84 81 78 73 70 72 65 66 65 64 70 58 58 59 56 46 29 22 25 26 22 23 33 32 32 37 41 38 36 38 47 46 45 43 45 51 49
109 85 58 65 79 89 86 81 83 75 62 60 57 60 58 60 64 60 58 53 38 39 20 20 15 20 28 34 34 35 36 44 46 49 48 47 51 52 50 50 53 56 63
101 76 56 65 71 72 76 81 79 71 61 56 55 49 55 59 55 48 40 28 20 22 19 15 20 26 28 35 39 42 45 49 50 51 52 54 55 57 54 57 61 67 73
78 51 62 58 55 59 73 81 77 63 54 51 51 51 27 47 43 30 26 27 21 17 15 17 25 34 40 46 46 43 46 45 45 52 58 53 49 51 54 64 73 80 83
44 46 57 60 62 64 64 59 58 59 56 57 59 52 57 44 35 28 25 18 12 11 17 27 34 35 36 37 39 42 46 46 42 42 46 55 64 67 69 72 71 62 57
32 38 50 54 59 57 63 71 67 63 59 52 49 47 46 34 33 30 18 6 10 14 22 25 24 26 29 33 37 39 40 44 47 51 58 62 61 56 52 50 49 48 50
31 46 53 58 65 81 80 73 64 54 51 48 42 36 38 34 27 19 10 5 11 15 18 21 23 26 28 30 34 37 43 49 50 50 48 43 41 41 43 44 45 44 45
Wind_Direction_850mb
239 240 240 235 230 228 223 219 216 218 221 224 225 224 229 231 236 243 243 251 244 266 282 302 307 305 319 317 317 320 326 326 322 327 331 335 340 335 339 350 332 320 319
234 239 242 239 228 224 223 221 220 222 224 228 232 236 245 246 244 241 256 250 241 259 283 300 319 309 302 307 313 311 315 316 318 324 331 337 342 346 335 346 357 338 327
232 233 235 226 222 221 220 219 221 225 227 226 229 237 246 248 234 235 249 247 252 249 277 291 299 306 305 310 299 304 304 307 315 318 323 330 315 326 331 341 348 344 338
237 235 232 224 221 221 223 224 225 230 230 226 226 227 234 242 233 227 232 235 243 248 264 285 293 289 295 303 307 302 307 307 311 307 311 325 320 317 318 325 339 347 350
239 236 232 230 228 224 223 225 228 232 231 226 228 228 230 237 225 225 232 243 242 254 259 269 279 289 276 283 289 297 301 302 306 308 313 323 325 317 321 318 334 346 2
239 238 236 230 228 227 226 228 229 231 231 230 231 230 230 230 223 223 228 227 229 233 251 263 243 263 278 274 269 277 288 297 302 305 312 332 318 311 313 314 322 334 354
237 233 231 229 227 227 227 228 230 232 232 231 233 232 232 229 229 225 227 225 229 239 246 251 254 264 283 290 279 273 277 292 303 307 306 314 323 316 302 306 314 324 338
230 233 234 234 232 232 231 230 229 231 233 234 235 236 235 233 232 229 232 236 235 231 238 242 250 268 277 285 298 292 283 292 307 313 314 311 322 327 313 281 312 318 324
220 232 236 234 234 234 235 233 233 234 236 236 236 236 237 236 235 232 234 240 238 232 241 247 253 261 276 280 290 293 299 307 314 320 314 313 305 329 331 315 315 309 311
216 219 233 236 234 234 237 238 238 238 240 240 239 239 239 240 240 236 235 238 239 240 247 254 262 270 278 281 282 290 305 303 305 303 304 306 303 305 315 312 309 302 301
217 212 226 235 241 234 229 235 237 238 239 240 242 241 241 241 243 244 242 239 241 245 250 257 263 275 276 278 285 297 297 296 305 303 302 301 304 295 301 299 299 297 300
222 217 219 230 235 238 238 234 235 237 237 240 241 241 241 242 243 245 248 247 245 246 252 261 268 274 271 277 289 287 288 296 298 302 304 308 303 300 299 295 294 295 297
228 226 225 227 235 239 239 236 232 233 232 235 240 241 241 241 244 247 251 254 253 253 258 265 268 266 273 277 276 276 285 293 301 308 310 310 304 301 299 299 302 302 298
233 225 228 230 233 238 239 237 235 232 234 232 236 240 241 239 239 246 252 258 262 258 260 265 270 270 271 268 273 277 284 295 306 308 308 306 308 310 307 304 302 299 300
229 231 231 235 236 237 238 239 234 234 233 236 236 236 238 243 237 242 249 257 248 245 245 252 257 267 272 268 269 272 286 299 304 306 305 305 304 305 310 308 307 305 302
261 246 233 237 240 238 240 238 236 233 234 234 236 237 235 238 233 233 233 225 221 227 243 282 276 266 264 260 264 279 284 294 306 317 320 317 312 311 317 322 321 315 314
299 271 247 235 236 239 242 242 239 233 233 237 238 236 236 237 222 217 215 207 207 200 200 207 301 284 265 264 272 278 290 303 320 323 318 315 314 313 311 310 314 317 323
323 302 268 243 237 239 240 238 239 236 231 231 235 235 231 225 209 210 213 214 217 214 203 248 238 257 264 267 269 282 296 306 316 318 321 320 314 310 304 301 299 301 308
321 306 291 265 246 239 237 234 228 229 227 228 231 228 223 214 206 210 219 224 228 212 301 287 219 238 249 260 273 283 286 294 299 312 320 323 324 322 310 304 297 295 298
317 314 286 268 259 244 231 226 225 222 224 223 224 221 217 209 208 212 220 213 221 284 286 224 224 233 246 266 268 271 278 284 296 304 307 311 309 305 304 305 300 302 306
317 314 282 250 253 246 230 219 220 219 219 216 213 210 206 201 208 215 226 235 253 271 197 224 241 251 263 268 273 280 284 288 292 297 298 300 298 295 289 293 296 297 300
313 305 271 245 238 235 224 214 212 211 207 201 199 195 196 196 207 208 225 254 195 189 218 230 250 272 282 285 290 292 290 293 292 290 290 291 291 290 288 289 292 293 294
304 290 248 228 212 212 210 206 198 189 180 178 172 167 218 193 196 201 196 181 188 209 229 257 277 289 295 299 300 298 299 297 294 295 294 293 295 296 298 295 293 290 289
277 239 215 200 190 192 195 200 172 166 167 171 167 176 188 193 188 180 175 179 206 243 271 279 291 297 296 294 294 295 293 292 291 289 296 302 302 301 299 295 294 296 296
223 198 188 179 173 166 165 158 158 160 158 160 166 169 183 190 174 173 182 199 257 277 294 297 295 298 298 295 293 289 288 293 299 306 309 307 307 310 309 307 308 312 311
185 174 177 163 155 152 148 145 146 151 153 150 154 167 178 176 182 181 178 257 294 302 301 298 298 301 303 303 300 300 302 306 312 313 313 319 325 333 330 324 323 327 329